| time (UTC) | temp F | wind direction | speed knots | gust knots | rain 1hr in | rain 24hr in | rain mn in | humidity % | barometer mb |
| 20260504081526 | 44 | 246 | 0.0 | 0.9 | 0.00 | 0.00 | 0.00 | 66 | 1014.3 |
| 20260504050005 | 45 | 231 | 0.0 | 1.7 | 0.00 | 0.00 | 0.00 | 65 | 1014.3 |
| 20260504044512 | 45 | 152 | 0.0 | 0.9 | 0.00 | 0.00 | 0.00 | 63 | 1014.3 |
| 20260504043011 | 46 | 152 | 0.0 | 1.7 | 0.00 | 0.00 | 0.00 | 64 | 1014.2 |
| 20260504041506 | 46 | 152 | 0.0 | 1.7 | 0.00 | 0.00 | 0.00 | 61 | 1014.2 |
| 20260504040008 | 47 | 152 | 0.0 | 0.9 | 0.00 | 0.00 | 0.00 | 60 | 1013.9 |
| 20260504034510 | 47 | 152 | 0.0 | 1.7 | 0.00 | 0.00 | 0.00 | 59 | 1013.8 |
| 20260504033008 | 48 | 152 | 0.0 | 0.9 | 0.00 | 0.00 | 0.00 | 57 | 1013.8 |
| 20260504031505 | 48 | 152 | 0.0 | 0.0 | 0.00 | 0.00 | 0.00 | 57 | 1013.7 |
| 20260504030030 | 49 | 152 | 0.0 | 0.9 | 0.00 | 0.00 | 0.00 | 54 | 1013.6 |
| 20260504024510 | 49 | 152 | 0.0 | 1.7 | 0.00 | 0.00 | 0.00 | 53 | 1013.7 |
| 20260504023010 | 48 | 152 | 0.0 | 0.9 | 0.00 | 0.00 | 0.00 | 54 | 1013.7 |
| 20260504021511 | 48 | 152 | 0.0 | 2.6 | 0.00 | 0.00 | 0.00 | 55 | 1013.8 |
| 20260504020010 | 49 | 155 | 0.0 | 1.7 | 0.00 | 0.00 | 0.00 | 56 | 1013.7 |
| 20260504014524 | 49 | 165 | 0.0 | 1.7 | 0.00 | 0.00 | 0.00 | 53 | 1013.7 |
| 20260504013008 | 50 | 166 | 0.9 | 2.6 | 0.00 | 0.00 | 0.00 | 55 | 1013.7 |
| 20260504011514 | 50 | 211 | 0.0 | 0.9 | 0.00 | 0.00 | 0.00 | 53 | 1013.6 |
| 20260504010019 | 51 | 216 | 0.0 | 0.9 | 0.00 | 0.00 | 0.00 | 51 | 1013.4 |
| 20260504004515 | 51 | 207 | 0.0 | 0.9 | 0.00 | 0.00 | 0.00 | 50 | 1013.2 |
| 20260504003025 | 52 | 207 | 0.0 | 1.7 | 0.00 | 0.00 | 0.00 | 53 | 1013.0 |
| 20260504001511 | 54 | 242 | 0.0 | 0.9 | 0.00 | 0.00 | 0.00 | 45 | 1012.8 |
| 20260504000016 | 55 | 242 | 0.0 | 1.7 | 0.00 | 0.00 | 0.00 | 41 | 1012.7 |
| 20260503234529 | 56 | 249 | 0.9 | 7.0 | 0.00 | 0.00 | 0.00 | 40 | 1012.5 |
| 20260503233018 | 56 | 254 | 3.5 | 9.6 | 0.00 | 0.00 | 0.00 | 40 | 1012.4 |
| 20260503231521 | 57 | 263 | 3.5 | 7.0 | 0.00 | 0.00 | 0.00 | 40 | 1012.4 |
| 20260503230017 | 57 | 254 | 4.3 | 7.8 | 0.00 | 0.00 | 0.00 | 40 | 1012.4 |
| 20260503224512 | 57 | 243 | 2.6 | 7.8 | 0.00 | 0.00 | 0.00 | 40 | 1012.4 |
| 20260503223019 | 57 | 247 | 6.1 | 9.6 | 0.00 | 0.00 | 0.00 | 41 | 1012.3 |
| 20260503221520 | 57 | 280 | 5.2 | 8.7 | 0.00 | 0.00 | 0.00 | 39 | 1012.3 |
| 20260503220016 | 57 | 250 | 5.2 | 12.2 | 0.00 | 0.00 | 0.00 | 38 | 1012.3 |
| 20260503214526 | 58 | 255 | 6.1 | 13.9 | 0.00 | 0.00 | 0.00 | 37 | 1012.3 |
| 20260503213018 | 58 | 309 | 7.0 | 17.4 | 0.00 | 0.00 | 0.00 | 35 | 1012.1 |
| 20260503211516 | 58 | 229 | 6.1 | 11.3 | 0.00 | 0.00 | 0.00 | 35 | 1012.0 |
| 20260503210026 | 58 | 285 | 5.2 | 11.3 | 0.00 | 0.00 | 0.00 | 37 | 1012.0 |
| 20260503204533 | 58 | 246 | 7.8 | 12.2 | 0.00 | 0.00 | 0.00 | 37 | 1012.1 |
| 20260503203025 | 58 | 347 | 3.5 | 15.6 | 0.00 | 0.00 | 0.00 | 36 | 1012.1 |
| 20260503201519 | 58 | 300 | 4.3 | 12.2 | 0.00 | 0.00 | 0.00 | 39 | 1012.2 |
| 20260503200016 | 57 | 267 | 6.1 | 14.8 | 0.00 | 0.00 | 0.00 | 42 | 1012.4 |
| 20260503194516 | 57 | 206 | 6.1 | 14.8 | 0.00 | 0.00 | 0.00 | 41 | 1012.5 |
| 20260503193013 | 56 | 326 | 6.1 | 14.8 | 0.00 | 0.00 | 0.00 | 41 | 1012.7 |
| 20260503191510 | 55 | 291 | 5.2 | 11.3 | 0.00 | 0.00 | 0.00 | 42 | 1012.7 |
| 20260503190009 | 56 | 224 | 7.0 | 13.9 | 0.00 | 0.00 | 0.00 | 40 | 1013.0 |
| 20260503184513 | 55 | 251 | 6.1 | 15.6 | 0.00 | 0.00 | 0.00 | 39 | 1013.1 |
| 20260503183024 | 55 | 281 | 7.0 | 14.8 | 0.00 | 0.00 | 0.00 | 49 | 1013.3 |
| 20260503181522 | 55 | 260 | 7.0 | 13.0 | 0.00 | 0.00 | 0.00 | 38 | 1013.2 |
| 20260503180024 | 55 | 279 | 4.3 | 11.3 | 0.00 | 0.00 | 0.00 | 46 | 1013.3 |
| 20260503174515 | 54 | 309 | 8.7 | 16.5 | 0.00 | 0.00 | 0.00 | 44 | 1013.4 |
| 20260503173015 | 53 | 338 | 5.2 | 11.3 | 0.00 | 0.00 | 0.00 | 42 | 1013.5 |
| 20260503171512 | 53 | 265 | 7.0 | 12.2 | 0.00 | 0.00 | 0.00 | 44 | 1013.6 |